Time,TemperatureF,DewpointF,PressureIn,WindDirection,WindDirectionDegrees,WindSpeedMPH,WindSpeedGustMPH,Humidity,HourlyPrecipIn,Conditions,Clouds,dailyrainin,SoftwareType,DateUTC
2013-06-04 00:01:00,60.1,48.7,29.12,NW,315,0.0,0.0,66,0.00,,---,0.00,VWS V14.01,2013-06-04 04:01:00,
2013-06-04 00:06:00,59.9,48.5,29.12,NW,315,0.0,0.0,66,0.00,,---,0.00,VWS V14.01,2013-06-04 04:06:00,
2013-06-04 00:11:00,59.7,48.4,29.12,NW,315,0.0,0.0,66,0.00,,---,0.00,VWS V14.01,2013-06-04 04:11:00,
2013-06-04 00:16:00,59.7,48.4,29.12,NW,315,0.0,0.0,66,0.00,,---,0.00,VWS V14.01,2013-06-04 04:16:00,
2013-06-04 00:21:00,59.5,48.2,29.12,NW,315,0.0,0.0,66,0.00,,---,0.37,VWS V14.01,2013-06-04 04:21:00,
2013-06-04 00:26:00,59.5,48.2,29.12,NW,315,0.0,0.0,66,0.00,,---,0.00,VWS V14.01,2013-06-04 04:26:00,
2013-06-04 00:31:00,59.4,48.0,29.12,NW,315,0.0,0.0,66,0.00,,---,0.37,VWS V14.01,2013-06-04 04:31:00,
2013-06-04 00:36:00,59.4,48.4,29.12,NW,315,0.0,0.0,67,0.00,,---,0.00,VWS V14.01,2013-06-04 04:36:00,
2013-06-04 00:41:00,59.2,48.2,29.12,NW,315,0.0,0.0,67,0.00,,---,0.00,VWS V14.01,2013-06-04 04:41:00,
2013-06-04 00:46:00,59.2,48.2,29.12,NW,315,0.0,0.0,67,0.00,,---,0.00,VWS V14.01,2013-06-04 04:46:00,
2013-06-04 00:51:00,59.2,48.2,29.12,NW,315,0.0,0.0,67,0.00,,---,0.37,VWS V14.01,2013-06-04 04:51:00,
2013-06-04 00:56:00,59.2,48.2,29.12,NW,315,0.0,0.0,67,0.00,,---,0.00,VWS V14.01,2013-06-04 04:56:00,
2013-06-04 01:01:00,58.8,48.3,29.12,NW,315,0.0,0.0,68,0.00,,---,0.00,VWS V14.01,2013-06-04 05:01:00,
2013-06-04 01:06:00,58.6,48.1,29.12,NW,315,0.0,0.0,68,0.00,,---,0.00,VWS V14.01,2013-06-04 05:06:00,
2013-06-04 01:11:00,58.5,48.0,29.12,NW,315,0.0,0.0,68,0.00,,---,0.00,VWS V14.01,2013-06-04 05:11:00,
2013-06-04 01:16:00,58.3,48.2,29.12,NW,315,0.0,0.0,69,0.00,,---,0.00,VWS V14.01,2013-06-04 05:16:00,
2013-06-04 01:22:00,58.3,48.2,29.12,NW,315,0.0,0.0,69,0.00,,---,0.00,VWS V14.01,2013-06-04 05:22:00,
2013-06-04 01:27:00,58.5,48.3,29.12,NW,315,0.0,0.0,69,0.00,,---,0.00,VWS V14.01,2013-06-04 05:27:00,
2013-06-04 01:32:00,58.1,48.4,29.12,NW,315,0.0,0.0,70,0.00,,---,0.00,VWS V14.01,2013-06-04 05:32:00,
2013-06-04 01:37:00,57.9,48.2,29.12,NW,315,0.0,0.0,70,0.00,,---,0.00,VWS V14.01,2013-06-04 05:37:00,
2013-06-04 01:42:00,58.1,48.4,29.12,NW,315,0.0,0.0,70,0.00,,---,0.00,VWS V14.01,2013-06-04 05:42:00,
2013-06-04 01:47:00,57.9,48.2,29.12,NW,315,0.0,0.0,70,0.00,,---,0.00,VWS V14.01,2013-06-04 05:47:00,
2013-06-04 01:52:00,57.9,48.2,29.12,NW,315,0.0,0.0,70,0.00,,---,0.00,VWS V14.01,2013-06-04 05:52:00,
2013-06-04 01:57:00,57.7,48.0,29.12,NW,315,0.0,0.0,70,0.00,,---,0.00,VWS V14.01,2013-06-04 05:57:00,
2013-06-04 02:02:00,57.7,48.0,29.12,NW,315,0.0,0.0,70,0.00,,---,0.00,VWS V14.01,2013-06-04 06:02:00,
2013-06-04 02:07:00,57.6,48.2,29.09,NW,315,0.0,0.0,71,0.00,,---,0.00,VWS V14.01,2013-06-04 06:07:00,
2013-06-04 02:12:00,57.6,48.2,29.09,NW,315,0.0,0.0,71,0.00,,---,0.00,VWS V14.01,2013-06-04 06:12:00,
2013-06-04 02:17:00,57.4,48.1,29.09,NW,315,0.0,0.0,71,0.00,,---,0.00,VWS V14.01,2013-06-04 06:17:00,
2013-06-04 02:22:00,57.4,47.7,29.12,NW,315,0.0,0.0,70,0.00,,---,0.00,VWS V14.01,2013-06-04 06:22:00,
2013-06-04 02:27:00,57.4,48.1,29.12,NW,315,0.0,0.0,71,0.00,,---,0.00,VWS V14.01,2013-06-04 06:27:00,
2013-06-04 02:32:00,57.2,47.9,29.12,NW,315,0.0,0.0,71,0.00,,---,0.00,VWS V14.01,2013-06-04 06:32:00,
2013-06-04 02:37:00,57.2,47.9,29.09,NW,315,0.0,0.0,71,0.00,,---,0.00,VWS V14.01,2013-06-04 06:37:00,
2013-06-04 02:42:00,57.2,47.9,29.09,NW,315,0.0,0.0,71,0.00,,---,0.00,VWS V14.01,2013-06-04 06:42:00,
2013-06-04 02:47:00,57.0,47.7,29.09,NW,315,0.0,0.0,71,0.00,,---,0.00,VWS V14.01,2013-06-04 06:47:00,
2013-06-04 02:52:00,56.8,47.9,29.09,NW,315,0.0,0.0,72,0.00,,---,0.00,VWS V14.01,2013-06-04 06:52:00,
2013-06-04 02:57:00,57.0,48.1,29.09,NW,315,0.0,0.0,72,0.00,,---,0.00,VWS V14.01,2013-06-04 06:57:00,
2013-06-04 03:02:00,57.0,48.1,29.09,NW,315,0.0,0.0,72,0.00,,---,0.37,VWS V14.01,2013-06-04 07:02:00,
2013-06-04 03:07:00,56.8,47.9,29.12,NW,315,0.0,0.0,72,0.00,,---,0.00,VWS V14.01,2013-06-04 07:07:00,
2013-06-04 03:12:00,56.8,47.9,29.12,NW,315,0.0,0.0,72,0.00,,---,0.00,VWS V14.01,2013-06-04 07:12:00,
2013-06-04 03:17:00,56.8,47.9,29.12,NW,315,0.0,0.0,72,0.00,,---,0.00,VWS V14.01,2013-06-04 07:17:00,
2013-06-04 03:22:00,56.7,47.8,29.09,NW,315,0.0,0.0,72,0.00,,---,0.00,VWS V14.01,2013-06-04 07:22:00,
2013-06-04 03:27:00,56.7,47.8,29.09,NW,315,0.0,0.0,72,0.00,,---,0.00,VWS V14.01,2013-06-04 07:27:00,
2013-06-04 03:32:00,56.7,47.8,29.09,NW,315,0.0,0.0,72,0.00,,---,0.00,VWS V14.01,2013-06-04 07:32:00,
2013-06-04 03:37:00,56.7,48.1,29.09,NW,315,0.0,0.0,73,0.00,,---,0.00,VWS V14.01,2013-06-04 07:37:00,
2013-06-04 03:42:00,56.5,47.9,29.09,NW,315,0.0,0.0,73,0.00,,---,0.00,VWS V14.01,2013-06-04 07:42:00,
2013-06-04 03:47:00,56.5,47.9,29.09,NW,315,0.0,0.0,73,0.00,,---,0.00,VWS V14.01,2013-06-04 07:47:00,
2013-06-04 03:52:00,56.3,47.8,29.09,NW,315,0.0,0.0,73,0.00,,---,0.37,VWS V14.01,2013-06-04 07:52:00,
2013-06-04 03:57:00,56.3,47.8,29.09,NW,315,0.0,0.0,73,0.00,,---,0.00,VWS V14.01,2013-06-04 07:57:00,
2013-06-04 04:02:00,56.3,47.8,29.09,NW,315,0.0,0.0,73,0.00,,---,0.00,VWS V14.01,2013-06-04 08:02:00,
2013-06-04 04:07:00,56.3,47.8,29.12,NW,315,0.0,0.0,73,0.00,,---,0.00,VWS V14.01,2013-06-04 08:07:00,
2013-06-04 04:12:00,56.3,47.8,29.12,NW,315,0.0,0.0,73,0.00,,---,0.00,VWS V14.01,2013-06-04 08:12:00,
2013-06-04 04:17:00,56.3,47.8,29.12,NW,315,0.0,0.0,73,0.00,,---,0.00,VWS V14.01,2013-06-04 08:17:00,
2013-06-04 04:22:00,56.3,47.8,29.12,NW,315,0.0,0.0,73,0.00,,---,0.00,VWS V14.01,2013-06-04 08:22:00,
2013-06-04 04:27:00,56.3,47.8,29.12,NW,315,0.0,0.0,73,0.00,,---,0.37,VWS V14.01,2013-06-04 08:27:00,
2013-06-04 04:32:00,56.1,47.6,29.12,NW,315,0.0,0.0,73,0.00,,---,0.00,VWS V14.01,2013-06-04 08:32:00,
2013-06-04 04:37:00,55.9,47.4,29.12,NW,315,0.0,0.0,73,0.00,,---,0.00,VWS V14.01,2013-06-04 08:37:00,
2013-06-04 04:42:00,55.9,47.8,29.12,NW,315,0.0,0.0,74,0.00,,---,0.00,VWS V14.01,2013-06-04 08:42:00,
2013-06-04 04:47:00,55.9,47.8,29.12,NW,315,0.0,0.0,74,0.00,,---,0.00,VWS V14.01,2013-06-04 08:47:00,
2013-06-04 04:52:00,55.9,47.4,29.12,NW,315,0.0,0.0,73,0.00,,---,0.00,VWS V14.01,2013-06-04 08:52:00,
2013-06-04 04:57:00,55.9,47.4,29.12,NW,315,0.0,0.0,73,0.00,,---,0.00,VWS V14.01,2013-06-04 08:57:00,
2013-06-04 05:02:00,55.9,47.4,29.12,NW,315,0.0,0.0,73,0.00,,---,0.00,VWS V14.01,2013-06-04 09:02:00,
2013-06-04 05:07:00,55.9,47.8,29.12,NW,315,0.0,0.0,74,0.00,,---,0.37,VWS V14.01,2013-06-04 09:07:00,
2013-06-04 05:12:00,55.8,47.2,29.12,NW,315,0.0,0.0,73,0.00,,---,0.00,VWS V14.01,2013-06-04 09:12:00,
2013-06-04 05:17:00,55.8,47.2,29.12,NW,315,0.0,0.0,73,0.00,,---,0.00,VWS V14.01,2013-06-04 09:17:00,
2013-06-04 05:22:00,55.8,47.2,29.12,NW,315,0.0,0.0,73,0.00,,---,0.00,VWS V14.01,2013-06-04 09:22:00,
2013-06-04 05:27:00,55.6,47.1,29.12,NW,315,0.0,0.0,73,0.00,,---,0.37,VWS V14.01,2013-06-04 09:27:00,
2013-06-04 05:32:00,55.6,47.1,29.12,NW,315,0.0,0.0,73,0.00,,---,0.00,VWS V14.01,2013-06-04 09:32:00,
2013-06-04 05:37:00,55.6,47.1,29.12,NW,315,0.0,0.0,73,0.00,,---,0.00,VWS V14.01,2013-06-04 09:37:00,
2013-06-04 05:42:00,55.6,47.1,29.12,NW,315,0.0,0.0,73,0.00,,---,0.00,VWS V14.01,2013-06-04 09:42:00,
2013-06-04 05:47:00,55.6,47.4,29.12,NW,315,0.0,0.0,74,0.00,,---,0.00,VWS V14.01,2013-06-04 09:47:00,
2013-06-04 05:52:00,55.4,47.3,29.12,NW,315,0.0,0.0,74,0.00,,---,0.37,VWS V14.01,2013-06-04 09:52:00,
2013-06-04 05:57:00,55.2,47.1,29.12,NW,315,0.0,0.0,74,0.00,,---,0.00,VWS V14.01,2013-06-04 09:57:00,
2013-06-04 06:02:00,55.2,47.1,29.12,NW,315,0.0,0.0,74,0.00,,---,0.00,VWS V14.01,2013-06-04 10:02:00,
2013-06-04 06:07:00,55.2,47.1,29.12,NW,315,0.0,0.0,74,0.00,,---,0.00,VWS V14.01,2013-06-04 10:07:00,
2013-06-04 06:12:00,55.2,47.1,29.12,NW,315,0.0,0.0,74,0.00,,---,0.00,VWS V14.01,2013-06-04 10:12:00,
2013-06-04 06:17:00,55.0,46.9,29.12,NW,315,0.0,0.0,74,0.00,,---,0.00,VWS V14.01,2013-06-04 10:17:00,
2013-06-04 06:22:00,55.0,46.9,29.12,NW,315,0.0,0.0,74,0.00,,---,0.37,VWS V14.01,2013-06-04 10:22:00,
2013-06-04 06:27:00,55.0,46.9,29.12,NW,315,0.0,0.0,74,0.00,,---,0.37,VWS V14.01,2013-06-04 10:27:00,
2013-06-04 06:32:00,54.9,46.7,29.12,NW,315,0.0,0.0,74,0.00,,---,0.37,VWS V14.01,2013-06-04 10:32:00,
2013-06-04 06:37:00,54.9,46.7,29.14,NW,315,0.0,0.0,74,0.00,,---,0.00,VWS V14.01,2013-06-04 10:37:00,
2013-06-04 06:42:00,54.9,46.7,29.14,NW,315,0.0,0.0,74,0.00,,---,0.00,VWS V14.01,2013-06-04 10:42:00,
2013-06-04 06:47:00,54.7,46.6,29.14,NW,315,0.0,0.0,74,0.00,,---,0.00,VWS V14.01,2013-06-04 10:47:00,
2013-06-04 06:52:00,54.7,46.6,29.12,NW,315,0.0,0.0,74,0.00,,---,0.00,VWS V14.01,2013-06-04 10:52:00,
2013-06-04 06:57:00,54.7,46.6,29.12,NW,315,0.0,0.0,74,0.00,,---,0.00,VWS V14.01,2013-06-04 10:57:00,
2013-06-04 07:02:00,54.7,46.6,29.12,NW,315,0.0,0.0,74,0.00,,---,0.00,VWS V14.01,2013-06-04 11:02:00,
2013-06-04 07:07:00,54.7,46.6,29.12,NW,315,0.0,0.0,74,0.00,,---,0.00,VWS V14.01,2013-06-04 11:07:00,
2013-06-04 07:12:00,54.7,46.9,29.12,NW,315,0.0,0.0,75,0.00,,---,0.00,VWS V14.01,2013-06-04 11:12:00,
2013-06-04 07:17:00,54.9,47.1,29.12,NW,315,0.0,0.0,75,0.00,,---,0.00,VWS V14.01,2013-06-04 11:17:00,
2013-06-04 07:22:00,54.9,47.1,29.12,NW,315,0.0,0.0,75,0.00,,---,0.00,VWS V14.01,2013-06-04 11:22:00,
2013-06-04 07:27:00,54.9,47.1,29.12,NW,315,0.0,0.0,75,0.00,,---,0.00,VWS V14.01,2013-06-04 11:27:00,
2013-06-04 07:32:00,54.9,47.1,29.12,NW,315,0.0,0.0,75,0.00,,---,0.00,VWS V14.01,2013-06-04 11:32:00,
2013-06-04 07:37:00,55.0,47.3,29.12,NW,315,0.0,0.0,75,0.00,,---,0.00,VWS V14.01,2013-06-04 11:37:00,
2013-06-04 07:42:00,55.2,47.8,29.12,NW,315,0.0,0.0,76,0.00,,---,0.00,VWS V14.01,2013-06-04 11:42:00,
2013-06-04 07:47:00,55.4,47.6,29.12,NW,315,0.0,0.0,75,0.00,,---,0.00,VWS V14.01,2013-06-04 11:47:00,
2013-06-04 07:52:00,55.4,48.0,29.12,NW,315,0.0,0.9,76,0.00,,---,0.00,VWS V14.01,2013-06-04 11:52:00,
2013-06-04 07:57:00,55.6,48.5,29.12,NW,315,0.0,0.0,77,0.00,,---,0.00,VWS V14.01,2013-06-04 11:57:00,
2013-06-04 08:02:00,55.8,48.3,29.12,NW,315,0.0,1.1,76,0.00,,---,0.00,VWS V14.01,2013-06-04 12:02:00,
2013-06-04 08:07:00,55.9,48.8,29.12,NW,315,0.0,0.0,77,0.00,,---,0.00,VWS V14.01,2013-06-04 12:07:00,
2013-06-04 08:12:00,56.1,48.7,29.12,NW,315,1.3,1.3,76,0.00,,---,0.00,VWS V14.01,2013-06-04 12:12:00,
2013-06-04 08:17:00,56.3,48.5,29.14,NW,315,0.0,0.0,75,0.00,,---,0.00,VWS V14.01,2013-06-04 12:17:00,
2013-06-04 08:22:00,56.5,49.0,29.14,NW,315,0.0,0.0,76,0.00,,---,0.00,VWS V14.01,2013-06-04 12:22:00,
2013-06-04 08:27:00,56.7,48.8,29.14,NW,315,0.0,0.0,75,0.00,,---,0.37,VWS V14.01,2013-06-04 12:27:00,
2013-06-04 08:32:00,56.7,48.5,29.14,NW,315,0.0,0.0,74,0.00,,---,0.37,VWS V14.01,2013-06-04 12:32:00,
2013-06-04 08:37:00,57.0,48.8,29.14,NW,315,0.0,0.0,74,0.00,,---,0.37,VWS V14.01,2013-06-04 12:37:00,
2013-06-04 08:42:00,57.2,48.3,29.14,NW,315,0.0,0.0,72,0.00,,---,0.00,VWS V14.01,2013-06-04 12:42:00,
2013-06-04 08:47:00,57.2,48.3,29.14,NW,315,1.3,1.3,72,0.00,,---,0.00,VWS V14.01,2013-06-04 12:47:00,
2013-06-04 08:52:00,57.4,48.1,29.14,NW,315,1.1,1.1,71,0.00,,---,0.37,VWS V14.01,2013-06-04 12:52:00,
2013-06-04 08:57:00,57.7,48.0,29.14,NW,315,0.0,1.1,70,0.00,,---,0.00,VWS V14.01,2013-06-04 12:57:00,
2013-06-04 09:02:00,57.9,48.2,29.14,NW,315,0.0,1.1,70,0.00,,---,0.00,VWS V14.01,2013-06-04 13:02:00,
2013-06-04 09:07:00,58.1,48.0,29.14,NW,315,2.7,2.7,69,0.00,,---,0.00,VWS V14.01,2013-06-04 13:07:00,
2013-06-04 09:12:00,58.3,47.8,29.14,NW,315,1.1,1.3,68,0.00,,---,0.00,VWS V14.01,2013-06-04 13:12:00,
2013-06-04 09:17:00,58.6,47.7,29.14,NW,315,0.9,2.2,67,0.00,,---,0.00,VWS V14.01,2013-06-04 13:17:00,
2013-06-04 09:22:00,58.8,48.7,29.14,NW,315,0.9,0.9,69,0.00,,---,0.00,VWS V14.01,2013-06-04 13:22:00,
2013-06-04 09:27:00,59.2,47.8,29.14,SSE,158,0.0,0.0,66,0.00,,---,0.00,VWS V14.01,2013-06-04 13:27:00,
2013-06-04 09:32:00,59.2,47.8,29.14,WNW,292,0.9,1.1,66,0.00,,---,0.00,VWS V14.01,2013-06-04 13:32:00,
2013-06-04 09:37:00,59.4,48.4,29.14,NW,315,0.0,0.0,67,0.00,,---,0.37,VWS V14.01,2013-06-04 13:37:00,
2013-06-04 09:42:00,60.1,48.3,29.14,SW,225,0.9,0.9,65,0.00,,---,0.00,VWS V14.01,2013-06-04 13:42:00,
2013-06-04 09:47:00,60.3,48.0,29.14,SSW,202,0.0,0.0,64,0.00,,---,0.00,VWS V14.01,2013-06-04 13:47:00,
2013-06-04 09:52:00,60.6,48.4,29.14,NW,315,1.1,1.1,64,0.00,,---,0.00,VWS V14.01,2013-06-04 13:52:00,
2013-06-04 09:57:00,60.8,47.7,29.14,WSW,248,1.1,1.1,62,0.00,,---,0.37,VWS V14.01,2013-06-04 13:57:00,
2013-06-04 10:02:00,61.0,47.9,29.14,WSW,248,2.2,2.2,62,0.00,,---,0.37,VWS V14.01,2013-06-04 14:02:00,
2013-06-04 10:07:00,61.2,48.0,29.14,SW,225,0.0,1.3,62,0.00,,---,0.00,VWS V14.01,2013-06-04 14:07:00,
2013-06-04 10:12:00,61.5,47.5,29.14,West,270,2.5,2.5,60,0.00,,---,0.00,VWS V14.01,2013-06-04 14:12:00,
2013-06-04 10:17:00,61.7,47.7,29.14,SSW,202,0.9,0.9,60,0.00,,---,0.00,VWS V14.01,2013-06-04 14:17:00,
2013-06-04 10:22:00,61.9,48.3,29.14,NW,315,1.6,1.6,61,0.00,,---,0.00,VWS V14.01,2013-06-04 14:22:00,
2013-06-04 10:27:00,62.2,47.3,29.14,NW,315,1.6,2.2,58,0.00,,---,0.00,VWS V14.01,2013-06-04 14:27:00,
2013-06-04 10:32:00,62.8,46.9,29.14,South,180,0.0,0.0,56,0.00,,---,0.00,VWS V14.01,2013-06-04 14:32:00,
2013-06-04 10:37:00,63.0,48.4,29.14,SW,225,0.0,0.0,59,0.00,,---,0.00,VWS V14.01,2013-06-04 14:37:00,
2013-06-04 10:42:00,63.3,46.9,29.14,SSE,158,1.6,1.6,55,0.00,,---,0.00,VWS V14.01,2013-06-04 14:42:00,
2013-06-04 10:47:00,63.5,47.5,29.14,SSW,202,1.3,1.3,56,0.00,,---,0.00,VWS V14.01,2013-06-04 14:47:00,
2013-06-04 10:52:00,63.9,47.4,29.14,South,180,3.4,3.4,55,0.00,,---,0.00,VWS V14.01,2013-06-04 14:52:00,
2013-06-04 10:57:00,63.9,47.4,29.14,WSW,248,0.9,1.1,55,0.00,,---,0.00,VWS V14.01,2013-06-04 14:57:00,
2013-06-04 11:02:00,64.0,46.6,29.14,SW,225,1.3,1.6,53,0.00,,---,0.00,VWS V14.01,2013-06-04 15:02:00,
2013-06-04 11:07:00,64.0,47.6,29.14,NW,315,1.1,1.3,55,0.00,,---,0.00,VWS V14.01,2013-06-04 15:07:00,
2013-06-04 11:12:00,64.4,45.9,29.14,West,270,0.0,0.0,51,0.00,,---,0.00,VWS V14.01,2013-06-04 15:12:00,
2013-06-04 11:17:00,64.6,46.6,29.14,West,270,0.0,0.9,52,0.00,,---,0.00,VWS V14.01,2013-06-04 15:17:00,
2013-06-04 11:22:00,64.8,48.2,29.14,SW,225,1.1,2.5,55,0.00,,---,0.00,VWS V14.01,2013-06-04 15:22:00,
2013-06-04 11:27:00,65.1,47.6,29.14,West,270,0.9,1.3,53,0.00,,---,0.00,VWS V14.01,2013-06-04 15:27:00,
2013-06-04 11:32:00,65.1,47.6,29.14,West,270,1.3,1.3,53,0.00,,---,0.00,VWS V14.01,2013-06-04 15:32:00,
2013-06-04 11:37:00,65.7,48.1,29.14,West,270,1.6,1.6,53,0.00,,---,0.00,VWS V14.01,2013-06-04 15:37:00,
2013-06-04 11:42:00,65.5,45.3,29.14,SW,225,1.3,2.2,48,0.00,,---,0.00,VWS V14.01,2013-06-04 15:42:00,
2013-06-04 11:47:00,65.5,47.4,29.14,NW,315,2.2,2.2,52,0.00,,---,0.00,VWS V14.01,2013-06-04 15:47:00,
2013-06-04 11:52:00,65.8,48.8,29.14,NW,315,0.0,1.3,54,0.00,,---,0.00,VWS V14.01,2013-06-04 15:52:00,
2013-06-04 11:57:00,66.0,48.4,29.14,West,270,2.2,2.2,53,0.00,,---,0.00,VWS V14.01,2013-06-04 15:57:00,
2013-06-04 12:02:00,66.0,48.9,29.14,NW,315,1.3,1.6,54,0.00,,---,0.00,VWS V14.01,2013-06-04 16:02:00,
2013-06-04 12:07:00,66.4,48.2,29.14,West,270,2.2,2.2,52,0.00,,---,0.37,VWS V14.01,2013-06-04 16:07:00,
2013-06-04 12:12:00,66.7,48.6,29.14,WNW,292,1.1,1.6,52,0.00,,---,0.00,VWS V14.01,2013-06-04 16:12:00,
2013-06-04 12:17:00,66.7,47.0,29.14,SW,225,1.3,2.0,49,0.00,,---,0.37,VWS V14.01,2013-06-04 16:17:00,
2013-06-04 12:22:00,66.7,47.0,29.14,SSW,202,1.6,2.0,49,0.00,,---,0.37,VWS V14.01,2013-06-04 16:22:00,
2013-06-04 12:27:00,67.3,48.0,29.14,SW,225,2.0,2.2,50,0.00,,---,0.37,VWS V14.01,2013-06-04 16:27:00,
2013-06-04 12:32:00,67.6,48.4,29.14,South,180,1.1,1.3,50,0.00,,---,0.37,VWS V14.01,2013-06-04 16:32:00,
2013-06-04 12:37:00,67.6,47.8,29.14,South,180,0.9,0.9,49,0.00,,---,0.00,VWS V14.01,2013-06-04 16:37:00,
2013-06-04 12:42:00,68.0,48.2,29.14,WNW,292,1.1,2.7,49,0.00,,---,0.00,VWS V14.01,2013-06-04 16:42:00,
2013-06-04 12:47:00,68.5,49.2,29.14,WNW,292,0.0,0.9,50,0.00,,---,0.37,VWS V14.01,2013-06-04 16:47:00,
2013-06-04 12:52:00,68.7,48.8,29.14,NE,45,0.0,1.1,49,0.00,,---,0.37,VWS V14.01,2013-06-04 16:52:00,
2013-06-04 12:57:00,69.3,49.3,29.14,SW,225,2.0,2.0,49,0.00,,---,0.00,VWS V14.01,2013-06-04 16:57:00,
2013-06-04 13:02:00,69.4,47.8,29.14,NW,315,2.0,2.0,46,0.00,,---,0.37,VWS V14.01,2013-06-04 17:02:00,
2013-06-04 13:07:00,69.8,48.7,29.14,NW,315,2.9,2.9,47,0.00,,---,0.00,VWS V14.01,2013-06-04 17:07:00,
2013-06-04 13:12:00,69.8,49.2,29.14,West,270,0.0,1.1,48,0.00,,---,0.00,VWS V14.01,2013-06-04 17:12:00,
2013-06-04 13:17:00,69.8,48.1,29.14,NW,315,3.8,3.8,46,0.00,,---,0.00,VWS V14.01,2013-06-04 17:17:00,
2013-06-04 13:22:00,70.2,48.4,29.14,West,270,1.1,1.6,46,0.00,,---,0.00,VWS V14.01,2013-06-04 17:22:00,
2013-06-04 13:27:00,70.3,49.2,29.14,West,270,1.1,2.2,47,0.00,,---,0.00,VWS V14.01,2013-06-04 17:27:00,
2013-06-04 13:32:00,70.7,47.7,29.14,SW,225,1.6,2.2,44,0.00,,---,0.00,VWS V14.01,2013-06-04 17:32:00,
2013-06-04 13:37:00,70.7,48.9,29.14,NE,45,0.0,0.0,46,0.00,,---,0.00,VWS V14.01,2013-06-04 17:37:00,
2013-06-04 13:42:00,71.1,49.3,29.14,NW,315,0.0,1.1,46,0.00,,---,0.00,VWS V14.01,2013-06-04 17:42:00,
2013-06-04 13:47:00,71.1,48.1,29.14,West,270,1.3,1.3,44,0.00,,---,0.37,VWS V14.01,2013-06-04 17:47:00,
2013-06-04 13:52:00,71.1,48.7,29.14,NNW,338,0.9,2.0,45,0.00,,---,0.00,VWS V14.01,2013-06-04 17:52:00,
2013-06-04 13:57:00,71.1,47.5,29.14,WNW,292,1.6,1.6,43,0.00,,---,0.00,VWS V14.01,2013-06-04 17:57:00,
2013-06-04 14:02:00,71.2,48.2,29.14,SW,225,2.0,2.0,44,0.00,,---,0.00,VWS V14.01,2013-06-04 18:02:00,
2013-06-04 14:07:00,71.2,47.6,29.14,South,180,0.9,2.2,43,0.00,,---,0.00,VWS V14.01,2013-06-04 18:07:00,
2013-06-04 14:12:00,71.1,46.2,29.14,SSW,202,0.9,0.9,41,0.00,,---,0.00,VWS V14.01,2013-06-04 18:12:00,
2013-06-04 14:17:00,71.2,47.6,29.14,SSW,202,0.0,0.9,43,0.00,,---,0.00,VWS V14.01,2013-06-04 18:17:00,
2013-06-04 14:22:00,71.6,47.9,29.14,SW,225,1.1,1.1,43,0.00,,---,0.00,VWS V14.01,2013-06-04 18:22:00,
2013-06-04 14:27:00,71.8,49.3,29.14,NW,315,1.3,1.3,45,0.00,,---,0.00,VWS V14.01,2013-06-04 18:27:00,
2013-06-04 14:32:00,71.6,45.4,29.14,West,270,0.0,0.9,39,0.00,,---,0.00,VWS V14.01,2013-06-04 18:32:00,
2013-06-04 14:37:00,72.0,48.9,29.14,NW,315,2.5,2.5,44,0.00,,---,0.37,VWS V14.01,2013-06-04 18:37:00,
2013-06-04 14:42:00,72.0,48.3,29.14,South,180,0.0,1.1,43,0.00,,---,0.00,VWS V14.01,2013-06-04 18:42:00,
2013-06-04 14:47:00,72.1,46.5,29.14,South,180,0.9,2.0,40,0.00,,---,0.00,VWS V14.01,2013-06-04 18:47:00,
2013-06-04 14:52:00,72.1,46.5,29.14,SW,225,2.2,2.5,40,0.00,,---,0.00,VWS V14.01,2013-06-04 18:52:00,
2013-06-04 14:57:00,72.1,48.4,29.14,NNW,338,1.3,2.7,43,0.00,,---,0.00,VWS V14.01,2013-06-04 18:57:00,
2013-06-04 15:02:00,72.1,47.8,29.14,South,180,2.9,2.9,42,0.00,,---,0.00,VWS V14.01,2013-06-04 19:02:00,
2013-06-04 15:07:00,72.5,49.4,29.14,South,180,2.2,2.2,44,0.00,,---,0.00,VWS V14.01,2013-06-04 19:07:00,
2013-06-04 15:12:00,72.5,48.1,29.14,West,270,2.5,2.5,42,0.00,,---,0.00,VWS V14.01,2013-06-04 19:12:00,
2013-06-04 15:17:00,72.5,48.1,29.14,NW,315,1.1,2.5,42,0.00,,---,0.00,VWS V14.01,2013-06-04 19:17:00,
2013-06-04 15:22:00,72.5,48.1,29.14,SE,135,0.0,0.0,42,0.00,,---,0.00,VWS V14.01,2013-06-04 19:22:00,
2013-06-04 15:27:00,72.9,48.5,29.14,SSE,158,1.6,1.6,42,0.00,,---,0.00,VWS V14.01,2013-06-04 19:27:00,
2013-06-04 15:32:00,72.5,48.1,29.14,NW,315,1.1,1.1,42,0.00,,---,0.00,VWS V14.01,2013-06-04 19:32:00,
2013-06-04 15:37:00,72.9,48.5,29.14,East,90,0.9,0.9,42,0.00,,---,0.00,VWS V14.01,2013-06-04 19:37:00,
2013-06-04 15:42:00,73.0,48.6,29.14,SSE,158,0.0,0.0,42,0.00,,---,0.00,VWS V14.01,2013-06-04 19:42:00,
2013-06-04 15:47:00,73.0,49.2,29.14,NW,315,1.1,2.0,43,0.00,,---,0.00,VWS V14.01,2013-06-04 19:47:00,
2013-06-04 15:52:00,73.0,49.2,29.14,WSW,248,1.1,1.1,43,0.00,,---,0.00,VWS V14.01,2013-06-04 19:52:00,
2013-06-04 15:57:00,73.2,48.8,29.14,WSW,248,0.0,1.6,42,0.00,,---,0.00,VWS V14.01,2013-06-04 19:57:00,
2013-06-04 16:02:00,73.2,48.8,29.14,WNW,292,1.6,1.6,42,0.00,,---,0.37,VWS V14.01,2013-06-04 20:02:00,
2013-06-04 16:07:00,73.4,48.3,29.17,South,180,0.0,0.0,41,0.00,,---,0.00,VWS V14.01,2013-06-04 20:07:00,
2013-06-04 16:12:00,73.4,48.3,29.17,SW,225,1.1,1.1,41,0.00,,---,0.37,VWS V14.01,2013-06-04 20:12:00,
2013-06-04 16:17:00,73.4,48.3,29.17,WSW,248,0.0,0.9,41,0.00,,---,0.00,VWS V14.01,2013-06-04 20:17:00,
2013-06-04 16:22:00,73.4,45.6,29.14,South,180,1.6,2.0,37,0.00,,---,0.00,VWS V14.01,2013-06-04 20:22:00,
2013-06-04 16:27:00,73.6,47.1,29.14,SE,135,1.3,2.0,39,0.00,,---,0.00,VWS V14.01,2013-06-04 20:27:00,
2013-06-04 16:32:00,73.6,45.0,29.14,SW,225,2.0,2.2,36,0.00,,---,0.00,VWS V14.01,2013-06-04 20:32:00,
2013-06-04 16:37:00,73.4,45.6,29.14,SW,225,1.3,1.3,37,0.00,,---,0.00,VWS V14.01,2013-06-04 20:37:00,
2013-06-04 16:42:00,73.4,47.0,29.14,South,180,1.6,2.2,39,0.00,,---,0.00,VWS V14.01,2013-06-04 20:42:00,
2013-06-04 16:47:00,73.8,48.0,29.14,WNW,292,0.0,1.1,40,0.00,,---,0.00,VWS V14.01,2013-06-04 20:47:00,
2013-06-04 16:52:00,73.8,48.0,29.17,South,180,0.9,1.1,40,0.00,,---,0.00,VWS V14.01,2013-06-04 20:52:00,
2013-06-04 16:57:00,73.8,47.3,29.17,SSW,202,0.0,2.2,39,0.00,,---,0.37,VWS V14.01,2013-06-04 20:57:00,
2013-06-04 17:02:00,73.8,48.0,29.17,NW,315,2.2,2.2,40,0.00,,---,0.37,VWS V14.01,2013-06-04 21:02:00,
2013-06-04 17:07:00,73.8,48.6,29.17,West,270,2.0,2.5,41,0.00,,---,0.37,VWS V14.01,2013-06-04 21:07:00,
2013-06-04 17:12:00,74.1,47.6,29.17,SW,225,0.0,1.1,39,0.00,,---,0.37,VWS V14.01,2013-06-04 21:12:00,
2013-06-04 17:17:00,74.1,48.3,29.17,NNW,338,0.9,0.9,40,0.00,,---,0.00,VWS V14.01,2013-06-04 21:17:00,
2013-06-04 17:22:00,74.1,47.6,29.14,NW,315,0.0,0.0,39,0.00,,---,0.00,VWS V14.01,2013-06-04 21:22:00,
2013-06-04 17:27:00,73.9,48.1,29.14,WSW,248,0.0,0.0,40,0.00,,---,0.00,VWS V14.01,2013-06-04 21:27:00,
2013-06-04 17:32:00,73.9,48.8,29.17,SW,225,0.0,1.1,41,0.00,,---,0.00,VWS V14.01,2013-06-04 21:32:00,
2013-06-04 17:37:00,73.9,49.4,29.17,WSW,248,0.0,1.3,42,0.00,,---,0.00,VWS V14.01,2013-06-04 21:37:00,
2013-06-04 17:42:00,74.1,49.6,29.17,SSW,202,0.0,0.0,42,0.00,,---,0.00,VWS V14.01,2013-06-04 21:42:00,
2013-06-04 17:47:00,74.3,49.1,29.14,NW,315,0.0,0.9,41,0.00,,---,0.00,VWS V14.01,2013-06-04 21:47:00,
2013-06-04 17:52:00,74.5,49.9,29.14,West,270,0.0,0.9,42,0.00,,---,0.00,VWS V14.01,2013-06-04 21:52:00,
2013-06-04 17:57:00,74.7,49.4,29.14,NW,315,1.3,2.0,41,0.00,,---,0.00,VWS V14.01,2013-06-04 21:57:00,